Back to catalog

STARLINK-11187

AliveCommunicationsVLEO
NORAD 60184·PAYLOAD·🇺🇸 United States

Launched Jul 3, 2024 from Cape Canaveral Space Force Station

Loading…

Next Passes (next 24 hours)

TLE

FreshSource: CelesTrak SupGP

Epoch: Sep 14, 2026, 22:16 UTC

1 60184C 24124B   26257.92826389 -.00045140  00000+0 -37186-3 0  2571
2 60184  53.1565 308.2393 0001082  93.6445  65.2701 15.69730690    14

Track STARLINK-11187 in real time with AllMySat

Download on the App Store